Tracking 33446 objects as of 10-Mar-2026
HD Live streaming from Space Station
objects crossing your sky now

STARLINK-35552

Track STARLINK-35552 now!
10-day predictions
STARLINK-35552 is classified as:


NORAD ID: 66058
Int'l Code: 2025-235A
Perigee: 481.4 km
Apogee: 483.3 km
Inclination: 53.2 °
Period: 94.1 minutes
Semi major axis: 6853 km
RCS: Unknown
Launch date: October 19, 2025
Source: United States (US)
Launch site: AIR FORCE EASTERN TEST RANGE (AFETR)
Your satellite tracking list
Your tracking list is empty




NASA's NSSDC Master Catalog

Two Line Element Set (TLE):
1 66058U 25235A   26068.74336242  .00030206  00000-0  10280-2 0  9999
2 66058  53.1597 242.5692 0001363  25.0175 335.0892 15.30195657 22961
Source of the keplerian elements: AFSPC